EW9187 Weather Reports


time (UTC)temp
F
wind
direction
speed
knots
gust
knots
rain 1hr
in
rain 24hr
in
rain mn
in
humidity
%
barometer
mb
20260504174515 77 212 0.0 0.0 0.00 0.00 0.00 43 968.1
20260504174021 77 225 0.0 0.9 0.00 0.00 0.00 44 968.5
20260504173514 78 68 0.9 1.7 0.00 0.00 0.00 46 968.3
20260504173011 78 45 0.9 2.6 0.00 0.00 0.00 45 968.6
20260504172514 79 316 0.9 2.6 0.00 0.00 0.00 41 968.5
20260504172003 78 225 0.0 2.6 0.00 0.00 0.00 45 968.7
20260504171516 78 224 0.0 0.9 0.00 0.00 0.00 43 968.6
20260504171015 79 226 0.0 0.9 0.00 0.00 0.00 42 968.9
20260504170525 79 23 0.0 0.9 0.00 0.00 0.00 43 969.0
20260504151018 74 223 0.0 0.9 0.00 0.00 0.00 50 969.4
20260504141016 68 222 0.0 1.7 0.00 0.00 0.00 61 969.9
20260504130516 61 238 0.0 0.0 0.00 0.00 0.00 65 969.9
20260504110525 41 0.0 0.0 0.00 0.00 0.00 95 969.0
20260504100535 41 238 0.0 0.0 0.00 0.00 0.00 94 968.9
20260504081611 42 0.0 0.0 0.00 0.00 0.00 94 969.3
20260504080516 42 238 0.0 0.0 0.00 0.00 0.00 94 969.1
20260504070128 43 0.0 0.0 0.00 0.00 0.00 93 969.6
20260504050632 45 0.0 0.0 0.00 0.00 0.00 90 970.3
20260504050116 46 0.0 0.0 0.00 0.00 0.00 90 970.3
20260504045515 46 238 0.0 0.0 0.00 0.00 0.00 90 970.0
20260504045023 46 0.0 0.0 0.00 0.00 0.00 90 970.3
20260504044024 46 0.0 0.0 0.00 0.00 0.00 90 970.3
20260504043629 46 0.0 0.0 0.00 0.00 0.00 89 970.5
20260504043016 46 238 0.0 0.0 0.00 0.00 0.00 88 970.2
20260504042116 46 0.0 0.0 0.00 0.00 0.00 88 970.5
20260504041507 47 0.0 0.0 0.00 0.00 0.00 88 970.6
20260504041050 47 0.0 0.0 0.00 0.00 0.00 88 970.5
20260504040515 47 238 0.0 0.0 0.00 0.00 0.00 87 970.4
20260504040014 47 0.0 0.0 0.00 0.00 0.00 87 970.7
20260504035515 47 238 0.0 0.0 0.00 0.00 0.00 88 970.4
20260504035015 47 238 0.0 0.0 0.00 0.00 0.00 87 970.5
20260504034548 47 0.0 0.0 0.00 0.00 0.00 87 970.6
20260504033515 48 238 0.0 0.0 0.00 0.00 0.00 86 970.4
20260504033007 48 0.0 0.0 0.00 0.00 0.00 86 970.4
20260504032515 48 238 0.0 0.0 0.00 0.00 0.00 84 970.3
20260504032015 48 238 0.0 0.0 0.00 0.00 0.00 84 970.2
20260504031513 49 0.0 0.0 0.00 0.00 0.00 84 970.4
20260504031015 49 238 0.0 0.0 0.00 0.00 0.00 83 970.2
20260504030532 49 0.0 0.0 0.00 0.00 0.00 84 970.4
20260504030016 49 238 0.0 0.0 0.00 0.00 0.00 83 970.3
20260504025515 49 238 0.0 0.0 0.00 0.00 0.00 82 970.3
20260504024538 50 0.0 0.0 0.00 0.00 0.00 81 970.4
20260504024016 50 238 0.0 0.0 0.00 0.00 0.00 80 970.2
20260504023550 50 0.0 0.0 0.00 0.00 0.00 80 970.4
20260504022516 50 238 0.0 0.0 0.00 0.00 0.00 80 970.1
20260504021544 51 0.0 0.0 0.00 0.00 0.00 78 969.8
20260504021018 51 238 0.0 0.0 0.00 0.00 0.00 77 969.8
20260504020504 51 0.0 0.0 0.00 0.00 0.00 77 969.9
20260504020035 51 238 0.0 0.0 0.00 0.00 0.00 77 969.8
20260504015015 52 238 0.0 0.0 0.00 0.00 0.00 74 969.7
20260504014535 52 238 0.0 0.0 0.00 0.00 0.00 73 969.7
20260504014015 52 238 0.0 0.0 0.00 0.00 0.00 72 969.7
20260504013034 53 0.0 0.0 0.00 0.00 0.00 70 969.6
20260504012515 53 238 0.0 0.0 0.00 0.00 0.00 71 969.5
20260504011532 54 0.0 0.0 0.00 0.00 0.00 69 969.5
20260504011054 54 0.0 0.0 0.00 0.00 0.00 67 969.4
20260504010035 55 238 0.0 0.0 0.00 0.00 0.00 65 969.3
20260504005015 56 238 0.0 0.0 0.00 0.00 0.00 64 969.2
20260504004515 57 238 0.0 0.0 0.00 0.00 0.00 63 969.3
20260504004035 57 238 0.0 0.0 0.00 0.00 0.00 62 969.1
20260504003015 59 238 0.0 0.0 0.00 0.00 0.00 60 969.0
20260504002134 61 0.0 0.0 0.00 0.00 0.00 59 968.9
20260504001516 61 0.0 0.0 0.00 0.00 0.00 55 968.9
20260504001015 62 238 0.0 0.0 0.00 0.00 0.00 52 968.9
20260504000538 63 0.0 0.0 0.00 0.00 0.00 53 969.1
20260504000015 63 238 0.0 0.0 0.00 0.00 0.00 50 969.0
20260503235035 64 238 0.0 0.9 0.00 0.00 0.00 49 969.0
20260503234015 64 238 0.0 0.0 0.00 0.00 0.00 49 968.9
20260503233515 64 239 0.0 0.0 0.00 0.00 0.00 48 968.9
20260503232535 65 237 0.0 0.9 0.00 0.00 0.00 47 969.0
20260503231535 65 335 0.0 0.9 0.00 0.00 0.00 48 969.0
20260503231014 66 225 0.0 1.7 0.00 0.00 0.00 47 968.7
20260503230515 66 349 0.0 0.9 0.00 0.00 0.00 47 969.1
20260503230035 66 349 0.0 0.9 0.00 0.00 0.00 47 969.1
20260503225104 66 23 0.0 0.9 0.00 0.00 0.00 45 968.9
20260503224515 67 347 0.9 5.2 0.00 0.00 0.00 45 969.0
20260503223515 67 340 0.9 1.7 0.00 0.00 0.00 44 969.0
20260503223055 67 217 0.9 0.9 0.00 0.00 0.00 44 969.3
20260503222515 68 11 0.0 0.9 0.00 0.00 0.00 43 969.0
20260503221554 68 270 0.0 0.9 0.00 0.00 0.00 43 969.0
20260503221015 69 226 0.9 0.9 0.00 0.00 0.00 43 969.1
20260503220015 69 348 0.0 0.0 0.00 0.00 0.00 40 969.2
20260503215552 69 0 0.0 0.9 0.00 0.00 0.00 42 969.2
20260503215104 69 338 0.9 3.5 0.00 0.00 0.00 42 969.4
20260503214515 69 349 0.0 0.0 0.00 0.00 0.00 41 969.3
20260503214022 69 158 0.0 0.9 0.00 0.00 0.00 43 969.1
20260503213546 70 0 0.0 2.6 0.00 0.00 0.00 42 969.2
20260503212555 70 221 0.0 0.9 0.00 0.00 0.00 44 969.4
20260503212036 69 225 0.0 0.9 0.00 0.00 0.00 43 969.4
20260503211015 69 349 0.0 0.9 0.00 0.00 0.00 43 969.7
20260503210538 70 338 0.9 7.0 0.00 0.00 0.00 40 969.9
20260503210015 70 229 0.0 0.9 0.00 0.00 0.00 41 969.7
20260503205015 70 236 0.9 3.5 0.00 0.00 0.00 41 969.8
20260503204105 70 225 0.9 4.3 0.00 0.00 0.00 39 969.8
20260503203515 70 64 0.9 2.6 0.00 0.00 0.00 39 969.8
20260503203046 70 338 0.9 3.5 0.00 0.00 0.00 42 969.9
20260503202537 70 333 0.0 0.9 0.00 0.00 0.00 40 969.9
20260503201542 70 0 0.0 0.9 0.00 0.00 0.00 40 970.1
20260503201045 70 338 0.9 2.6 0.00 0.00 0.00 35 970.3
20260503200515 70 0 0.0 5.2 0.00 0.00 0.00 39 970.2
20260503195515 70 229 0.0 0.9 0.00 0.00 0.00 39 970.3
20260503195038 70 225 0.9 2.6 0.00 0.00 0.00 43 970.4
20260503194015 70 247 0.9 4.3 0.00 0.00 0.00 38 970.7
20260503193017 70 253 0.0 0.9 0.00 0.00 0.00 42 970.8
20260503192539 70 17 0.0 0.9 0.00 0.00 0.00 45 970.9
20260503192003 70 225 0.9 3.5 0.00 0.00 0.00 41 971.0
20260503191015 70 347 0.9 3.5 0.00 0.00 0.00 41 971.0
20260503190526 70 225 0.9 2.6 0.00 0.00 0.00 44 971.4
20260503190015 69 234 2.6 3.5 0.00 0.00 0.00 42 971.0
20260503185515 69 261 0.0 0.9 0.00 0.00 0.00 41 971.4
20260503184517 70 349 3.5 4.3 0.00 0.00 0.00 40 971.3
20260503184014 70 344 1.7 3.5 0.00 0.00 0.00 43 971.4
20260503183537 70 295 0.9 1.7 0.00 0.00 0.00 41 971.6
20260503183036 69 267 0.9 3.5 0.00 0.00 0.00 42 971.5
20260503182105 69 225 0.9 3.5 0.00 0.00 0.00 41 971.7
20260503181530 70 270 0.9 2.6 0.00 0.00 0.00 40 972.0
20260503181015 70 225 0.9 1.7 0.00 0.00 0.00 43 972.1
20260503180032 70 225 0.9 2.6 0.00 0.00 0.00 42 972.0
20260503175536 70 225 0.9 1.7 0.00 0.01 0.00 41 971.9
20260503175037 70 270 0.0 0.9 0.00 0.01 0.00 42 972.1